| time (UTC) | temp C | wind direction | speed KPH | gust KPH | rain 1hr cm | rain 24hr cm | rain mn cm | humidity % | barometer mb |
| 20260905025459 | 29 | 240 | 8.0 | 12.9 | 0.00 | 0.00 | 0.00 | 78 | 1015.2 |
| 20260905024452 | 29 | 217 | 11.3 | 12.9 | 0.00 | 0.00 | 0.00 | 78 | 1015.0 |
| 20260905023506 | 29 | 212 | 9.7 | 14.5 | 0.00 | 0.00 | 0.00 | 78 | 1015.0 |
| 20260905022512 | 29 | 211 | 11.3 | 14.5 | 0.00 | 0.00 | 0.00 | 78 | 1015.0 |
| 20260905021515 | 30 | 189 | 9.7 | 14.5 | 0.00 | 0.00 | 0.00 | 78 | 1014.9 |
| 20260905020458 | 30 | 188 | 9.7 | 14.5 | 0.00 | 0.00 | 0.00 | 77 | 1014.9 |
| 20260905015444 | 30 | 207 | 9.7 | 14.5 | 0.00 | 0.00 | 0.00 | 78 | 1014.8 |
| 20260905014423 | 30 | 210 | 12.9 | 17.7 | 0.00 | 0.00 | 0.00 | 77 | 1014.7 |
| 20260905013414 | 30 | 202 | 12.9 | 17.7 | 0.00 | 0.00 | 0.00 | 75 | 1014.8 |
| 20260905012415 | 30 | 190 | 12.9 | 17.7 | 0.00 | 0.00 | 0.00 | 78 | 1014.8 |
| 20260905011350 | 30 | 181 | 14.5 | 20.9 | 0.00 | 0.00 | 0.00 | 80 | 1014.7 |
| 20260905010320 | 30 | 181 | 9.7 | 20.9 | 0.00 | 0.00 | 0.00 | 82 | 1014.7 |
| 20260905005325 | 30 | 0 | 4.8 | 11.3 | 0.00 | 0.00 | 0.00 | 83 | 1014.5 |
| 20260905004305 | 30 | 0 | 3.2 | 8.0 | 0.00 | 0.00 | 0.00 | 83 | 1014.6 |
| 20260905003322 | 30 | 0 | 4.8 | 11.3 | 0.00 | 0.00 | 0.00 | 82 | 1014.5 |
| 20260905001210 | 30 | 180 | 6.4 | 14.5 | 0.00 | 0.00 | 0.00 | 82 | 1014.3 |
| 20260905000218 | 30 | 145 | 9.7 | 14.5 | 0.00 | 0.00 | 0.00 | 82 | 1014.3 |
| 20260904235159 | 30 | 0 | 6.4 | 16.1 | 0.00 | 0.00 | 0.00 | 81 | 1014.4 |
| 20260904234123 | 30 | 0 | 8.0 | 16.1 | 0.00 | 0.00 | 0.00 | 81 | 1014.3 |
| 20260904233100 | 30 | 0 | 8.0 | 16.1 | 0.00 | 0.00 | 0.00 | 81 | 1014.3 |
| 20260904232041 | 30 | 94 | 8.0 | 14.5 | 0.00 | 0.00 | 0.00 | 81 | 1014.1 |
| 20260904231007 | 30 | 148 | 8.0 | 16.1 | 0.00 | 0.00 | 0.00 | 83 | 1014.1 |
| 20260904230004 | 30 | 0 | 8.0 | 14.5 | 0.00 | 0.00 | 0.00 | 82 | 1013.9 |
| 20260904223906 | 30 | 134 | 8.0 | 17.7 | 0.00 | 0.00 | 0.00 | 83 | 1014.1 |
| 20260904220526 | 30 | 0 | 12.9 | 22.5 | 0.00 | 0.00 | 0.00 | 82 | 1013.1 |
| 20260904215514 | 30 | 0 | 12.9 | 25.7 | 0.00 | 0.00 | 0.00 | 82 | 1013.1 |
| 20260904213347 | 30 | 0 | 14.5 | 24.1 | 0.00 | 0.00 | 0.00 | 82 | 1013.4 |
| 20260904211219 | 30 | 169 | 11.3 | 19.3 | 0.00 | 0.00 | 0.00 | 81 | 1013.8 |
| 20260904210233 | 30 | 0 | 11.3 | 22.5 | 0.00 | 0.00 | 0.00 | 82 | 1013.7 |
| 20260904205230 | 30 | 109 | 12.9 | 25.7 | 0.00 | 0.00 | 0.00 | 82 | 1013.7 |
| 20260904204217 | 30 | 0 | 12.9 | 25.7 | 0.00 | 0.00 | 0.00 | 81 | 1013.6 |
| 20260904203214 | 30 | 136 | 11.3 | 20.9 | 0.00 | 0.00 | 0.00 | 81 | 1013.6 |
| 20260904202216 | 30 | 144 | 12.9 | 22.5 | 0.00 | 0.00 | 0.00 | 81 | 1013.6 |
| 20260904201203 | 30 | 94 | 12.9 | 22.5 | 0.00 | 0.00 | 0.00 | 81 | 1013.7 |
| 20260904200209 | 30 | 137 | 12.9 | 20.9 | 0.00 | 0.00 | 0.00 | 81 | 1013.9 |
| 20260904195145 | 30 | 0 | 12.9 | 22.5 | 0.00 | 0.00 | 0.00 | 82 | 1014.2 |
| 20260904194125 | 30 | 0 | 11.3 | 24.1 | 0.00 | 0.00 | 0.00 | 82 | 1014.3 |
| 20260904191932 | 30 | 107 | 11.3 | 22.5 | 0.00 | 0.00 | 0.00 | 81 | 1014.2 |
| 20260904185839 | 31 | 0 | 11.3 | 20.9 | 0.00 | 0.00 | 0.00 | 80 | 1014.5 |
| 20260904184839 | 30 | 108 | 11.3 | 19.3 | 0.00 | 0.00 | 0.00 | 81 | 1014.6 |
| 20260904183830 | 30 | 126 | 11.3 | 19.3 | 0.00 | 0.00 | 0.00 | 81 | 1014.7 |
| 20260904182827 | 30 | 60 | 11.3 | 24.1 | 0.00 | 0.00 | 0.00 | 81 | 1015.1 |
| 20260904181815 | 30 | 96 | 9.7 | 19.3 | 0.00 | 0.00 | 0.00 | 80 | 1014.9 |
| 20260904180814 | 31 | 163 | 9.7 | 20.9 | 0.00 | 0.00 | 0.00 | 80 | 1015.2 |
| 20260904175758 | 30 | 96 | 11.3 | 20.9 | 0.00 | 0.00 | 0.00 | 80 | 1015.3 |
| 20260904172533 | 30 | 114 | 12.9 | 20.9 | 0.00 | 0.00 | 0.00 | 80 | 1015.5 |
| 20260904171545 | 31 | 143 | 9.7 | 17.7 | 0.00 | 0.00 | 0.00 | 78 | 1015.6 |
| 20260904165430 | 31 | 131 | 8.0 | 16.1 | 0.00 | 0.00 | 0.00 | 79 | 1015.8 |
| 20260904164436 | 31 | 119 | 4.8 | 12.9 | 0.00 | 0.00 | 0.00 | 75 | 1015.8 |
| 20260904163438 | 31 | 85 | 4.8 | 12.9 | 0.00 | 0.00 | 0.00 | 76 | 1015.8 |
| 20260904162433 | 31 | 160 | 6.4 | 12.9 | 0.00 | 0.00 | 0.00 | 76 | 1015.8 |
| 20260904161406 | 31 | 88 | 6.4 | 12.9 | 0.00 | 0.00 | 0.00 | 77 | 1016.0 |
| 20260904155207 | 31 | 121 | 6.4 | 14.5 | 0.00 | 0.00 | 0.00 | 74 | 1016.4 |
| 20260904154209 | 31 | 184 | 9.7 | 17.7 | 0.00 | 0.00 | 0.00 | 73 | 1016.4 |
| 20260904152016 | 31 | 195 | 12.9 | 17.7 | 0.00 | 0.00 | 0.00 | 71 | 1016.2 |
| 20260904150952 | 31 | 212 | 12.9 | 17.7 | 0.00 | 0.00 | 0.00 | 72 | 1016.1 |
| 20260904144833 | 31 | 195 | 12.9 | 16.1 | 0.00 | 0.00 | 0.00 | 75 | 1016.0 |
| 20260904143843 | 30 | 200 | 9.7 | 16.1 | 0.00 | 0.00 | 0.00 | 75 | 1016.0 |
| 20260904142819 | 30 | 193 | 8.0 | 12.9 | 0.00 | 0.00 | 0.00 | 77 | 1016.0 |
| 20260904141812 | 30 | 189 | 9.7 | 12.9 | 0.00 | 0.00 | 0.00 | 77 | 1015.8 |
| 20260904140756 | 30 | 217 | 9.7 | 17.7 | 0.00 | 0.00 | 0.00 | 78 | 1015.7 |
| 20260904135756 | 30 | 215 | 12.9 | 17.7 | 0.00 | 0.00 | 0.00 | 78 | 1015.6 |
| 20260904134741 | 30 | 215 | 11.3 | 16.1 | 0.00 | 0.00 | 0.00 | 79 | 1015.5 |
| 20260904133718 | 29 | 198 | 9.7 | 12.9 | 0.00 | 0.00 | 0.00 | 79 | 1015.4 |
| 20260904132738 | 29 | 202 | 8.0 | 12.9 | 0.00 | 0.00 | 0.00 | 80 | 1015.4 |
| 20260904131711 | 29 | 186 | 3.2 | 6.4 | 0.00 | 0.00 | 0.00 | 82 | 1015.4 |
| 20260904125540 | 28 | 184 | 4.8 | 8.0 | 0.00 | 0.00 | 0.00 | 82 | 1015.4 |
| 20260904124548 | 28 | 167 | 4.8 | 8.0 | 0.00 | 0.00 | 0.00 | 83 | 1015.3 |
| 20260904123547 | 28 | 186 | 4.8 | 8.0 | 0.00 | 0.00 | 0.00 | 84 | 1015.3 |
| 20260904122555 | 28 | 182 | 6.4 | 8.0 | 0.00 | 0.00 | 0.00 | 84 | 1015.2 |
| 20260904121557 | 28 | 200 | 6.4 | 12.9 | 0.00 | 0.00 | 0.00 | 84 | 1015.2 |
| 20260904115426 | 28 | 192 | 8.0 | 11.3 | 0.00 | 0.00 | 0.00 | 84 | 1014.9 |
| 20260904114411 | 28 | 188 | 9.7 | 12.9 | 0.00 | 0.00 | 0.00 | 84 | 1014.8 |
| 20260904113354 | 28 | 191 | 8.0 | 14.5 | 0.00 | 0.00 | 0.00 | 83 | 1014.6 |
| 20260904112333 | 28 | 185 | 11.3 | 16.1 | 0.00 | 0.00 | 0.00 | 83 | 1014.5 |
| 20260904111322 | 28 | 190 | 11.3 | 16.1 | 0.00 | 0.00 | 0.00 | 82 | 1014.4 |
| 20260904103927 | 28 | 155 | 6.4 | 12.9 | 0.00 | 0.00 | 0.00 | 83 | 1014.0 |
| 20260904102921 | 28 | 144 | 4.8 | 11.3 | 0.00 | 0.00 | 0.00 | 83 | 1014.2 |
| 20260904100817 | 28 | 158 | 6.4 | 11.3 | 0.00 | 0.00 | 0.00 | 83 | 1014.0 |
| 20260904095806 | 28 | 155 | 8.0 | 14.5 | 0.00 | 0.00 | 0.00 | 83 | 1014.0 |
| 20260904094729 | 28 | 175 | 9.7 | 16.1 | 0.00 | 0.00 | 0.00 | 82 | 1013.9 |
| 20260904093713 | 28 | 167 | 9.7 | 16.1 | 0.00 | 0.00 | 0.00 | 82 | 1013.7 |
| 20260904091524 | 29 | 0 | 9.7 | 16.1 | 0.00 | 0.00 | 0.00 | 82 | 1013.5 |
| 20260904090538 | 29 | 137 | 8.0 | 16.1 | 0.00 | 0.00 | 0.00 | 83 | 1013.5 |
| 20260904083244 | 29 | 148 | 9.7 | 14.5 | 0.00 | 0.00 | 0.00 | 83 | 1013.5 |
| 20260904082213 | 29 | 158 | 8.0 | 14.5 | 0.00 | 0.00 | 0.00 | 83 | 1013.4 |
| 20260904081225 | 29 | 159 | 8.0 | 16.1 | 0.00 | 0.00 | 0.00 | 82 | 1013.4 |
| 20260904080208 | 29 | 153 | 9.7 | 16.1 | 0.00 | 0.00 | 0.00 | 82 | 1013.3 |
| 20260904075154 | 29 | 150 | 11.3 | 16.1 | 0.00 | 0.00 | 0.00 | 82 | 1013.3 |
| 20260904073034 | 28 | 0 | 8.0 | 14.5 | 0.00 | 0.00 | 0.00 | 84 | 1013.3 |
| 20260904071958 | 28 | 137 | 9.7 | 14.5 | 0.00 | 0.00 | 0.00 | 85 | 1013.2 |
| 20260904070950 | 28 | 151 | 6.4 | 14.5 | 0.00 | 0.00 | 0.00 | 85 | 1013.3 |
| 20260904065939 | 28 | 163 | 6.4 | 12.9 | 0.00 | 0.00 | 0.00 | 86 | 1013.4 |
| 20260904064939 | 28 | 0 | 6.4 | 14.5 | 0.00 | 0.00 | 0.00 | 86 | 1013.6 |
| 20260904063938 | 28 | 0 | 8.0 | 14.5 | 0.00 | 0.00 | 0.00 | 86 | 1013.6 |
| 20260904062920 | 28 | 140 | 4.8 | 12.9 | 0.00 | 0.00 | 0.00 | 87 | 1013.6 |
| 20260904061921 | 28 | 152 | 4.8 | 12.9 | 0.00 | 0.00 | 0.00 | 86 | 1013.8 |
| 20260904060914 | 28 | 0 | 3.2 | 6.4 | 0.00 | 0.00 | 0.00 | 86 | 1013.9 |
| 20260904055908 | 28 | 142 | 1.6 | 4.8 | 0.00 | 0.00 | 0.00 | 86 | 1014.0 |
| 20260904054921 | 28 | 0 | 3.2 | 4.8 | 0.00 | 0.00 | 0.00 | 86 | 1014.0 |
| 20260904052755 | 28 | 119 | 1.6 | 3.2 | 0.00 | 0.00 | 0.00 | 85 | 1014.4 |
| 20260904051800 | 28 | 130 | 0.0 | 3.2 | 0.00 | 0.00 | 0.00 | 85 | 1014.4 |
| 20260904050745 | 28 | 159 | 0.0 | 0.0 | 0.00 | 0.00 | 0.00 | 85 | 1014.5 |
| 20260904043437 | 28 | 139 | 1.6 | 6.4 | 0.00 | 0.00 | 0.00 | 83 | 1014.4 |
| 20260904042410 | 28 | 0 | 3.2 | 11.3 | 0.00 | 0.00 | 0.00 | 83 | 1014.5 |
| 20260904041425 | 28 | 0 | 6.4 | 12.9 | 0.00 | 0.00 | 0.00 | 82 | 1014.5 |
| 20260904040415 | 28 | 157 | 8.0 | 16.1 | 0.00 | 0.00 | 0.00 | 81 | 1014.5 |
| 20260904033126 | 28 | 136 | 8.0 | 17.7 | 0.00 | 0.00 | 0.00 | 82 | 1014.4 |
| 20260904032049 | 28 | 0 | 8.0 | 17.7 | 0.00 | 0.00 | 0.00 | 82 | 1014.5 |
| 20260904031104 | 28 | 172 | 11.3 | 19.3 | 0.00 | 0.00 | 0.00 | 82 | 1014.6 |
| 20260904030028 | 28 | 0 | 11.3 | 19.3 | 0.00 | 0.00 | 0.00 | 82 | 1014.6 |